This is the latest recevied weather packets stored in our database for station/object WD9EKA. If no packets are shown the sender has not sent any weather packets the latest 10 day(s).
| Time | Temp. | Humidity | Pressure | Rain* | Wind** | Luminosity | Snow |
|---|---|---|---|---|---|---|---|
| 1777879774 | 12.22° C | 86% | 1004.1 hPa | 0.51 mm | - | - | - |
| 1777879414 | 12.22° C | 82% | 1004.2 hPa | 0.51 mm | - | - | - |
| 1777879054 | 13.33° C | 79% | 1004.3 hPa | 0.51 mm | - | - | - |
| 1777878694 | 13.33° C | 72% | 1004.8 hPa | 0 mm | - | - | - |
| 1777878334 | 13.89° C | 69% | 1004.3 hPa | 0 mm | - | - | - |
| 1777877974 | 13.33° C | 69% | 1003.8 hPa | 0 mm | - | - | - |
| 1777877614 | 13.33° C | 70% | 1003.8 hPa | 0 mm | - | - | - |
| 1777876894 | 13.33° C | 69% | 1004 hPa | 0 mm | - | - | - |
| 1777876534 | 13.33° C | 70% | 1004.2 hPa | 0 mm | - | - | - |
| 1777876174 | 13.89° C | 69% | 1004.3 hPa | 0 mm | - | - | - |
| 1777875814 | 13.89° C | 68% | 1004.5 hPa | 0 mm | - | - | - |
| 1777875454 | 13.89° C | 67% | 1004.5 hPa | 0 mm | - | - | - |
| 1777875094 | 13.89° C | 68% | 1004.5 hPa | 0 mm | - | - | - |
| 1777874793 | 13.89° C | 67% | 1004.6 hPa | 0 mm | - | - | - |
| 1777874473 | 13.33° C | 69% | 1004.7 hPa | 0 mm | - | - | - |
| 1777874134 | 13.33° C | 69% | 1004.4 hPa | 0 mm | - | - | - |
| 1777873817 | 13.33° C | 69% | 1004.7 hPa | 0 mm | - | - | - |
| 1777873497 | 13.33° C | 68% | 1004.6 hPa | 0 mm | - | - | - |
| 1777873174 | 13.33° C | 67% | 1004.8 hPa | 0 mm | - | - | - |
| 1777872857 | 13.33° C | 67% | 1004.9 hPa | 0 mm | - | - | - |
| 1777872214 | 13.89° C | 66% | 1004.9 hPa | 0 mm | - | - | - |
| 1777871577 | 13.89° C | 64% | 1004.9 hPa | 0 mm | - | - | - |
| 1777870616 | 13.89° C | 64% | 1005.4 hPa | 0 mm | - | - | - |
| 1777869977 | 13.89° C | 64% | 1005.5 hPa | 0 mm | - | - | - |
| 1777869333 | 13.89° C | 64% | 1005.1 hPa | 0 mm | - | - | - |
* Rain latest hour (hover to see other rain measurements)
** Current wind speed in m/s (hover to see current wind gust speed)